Погода в Мачале

Эквадор     3°16′11″S   79°57′02″W
темп.,
°C
ветер,
м/с
пор.,
м/с
влажн.,
%
обл.,
%
осадки,
мм/ч
давл.,
гПа
погр.,
м
9 мая, вс
вс901:00+23зюз119054 0.0 1011157
04:00+23зюз118688 0.0 1010170
07:00+23сз118672 0.0 1011184
10:00+26с227237 0.0 1012706
13:00+26сз347221 0.0 1010588
16:00+26зсз447355 0.0 1008675
19:00+24з238446 0.0 1010154
22:00+23зсз238685 0.0 1012208
10 мая, пн
пн1001:00+23з1289100 0.0 1011209
04:00+23з129186 0.3 1010158
07:00+23зсз128996 0.4 1011218
10:00+26зсз217534 0.1 1011657
13:00+26зсз44739 0.1 1009558
16:00+26зсз547412 0.0 1009597
19:00+24зсз228416 0.0 1011182
22:00+23з238746 0.0 1012222
11 мая, вт
вт1101:00+23з118586 0.0 1012246
04:00+23сз128499 0.0 1010247
07:00+23сз118397 0.1 1012261
10:00+25сз327368 0.0 1012715
13:00+26сз326836 0.0 1010813
16:00+26зсз33688 0.0 1008620
19:00+23з238214 0.0 1010161
22:00+23зюз238510 0.0 1012188
12 мая, ср
ср1201:00+22зюз018759 0.0 1011160
04:00+22ссв118829 0.0 1010183
07:00+23всв018527 0.0 1011209
10:00+26сз226912 0.0 1011654
13:00+27зсз436610 0.0 1009779
16:00+27зсз43686 0.0 1008526
19:00+24з34804 0.0 1010224
22:00+23зюз11835 0.0 1012166
13 мая, чт
чт1301:00+23зсз128751 0.0 1011204
04:00+23зюз118682 0.0 1011152
07:00+23ссв018420 0.0 1012205
10:00+27сз326920 0.0 1013742
13:00+27зсз43674 0.0 1011649
16:00+26з54708 0.0 1009543
19:00+23з34826 0.0 1011216
22:00+23зюз228516 0.0 1013222